Weather History for Grazzanise, Italy

Change the Weather History Date:

Thursday, March 20, 2014

  Actual Average (LIRN) Record (LIRN)
Temperature  
Mean Temperature 60 °F -  
Max Temperature 74 °F 63 °F 73 °F (2014)
Min Temperature 46 °F 44 °F 39 °F (2003)
Degree Days  
Heating Degree Days 5    
Growing Degree Days 10 (Base 50)    
Moisture  
Dew Point 52 °F    
Average Humidity 80    
Maximum Humidity 96    
Minimum Humidity 41    
Precipitation  
Precipitation 0.00 in 0.09 in - ()
Sea Level Pressure  
Sea Level Pressure 30.19 in    
Wind  
Wind Speed 6 mph ()    
Max Wind Speed 12 mph    
Max Gust Speed -    
Visibility 4.2 miles    
Events      
Averages and records for this station are not official NWS values.
T = Trace of Precipitation, MM = Missing Value Source: Averaged Metar Reports

Daily Weather History Graph

Daily Weather History Graph

Search for Another Location

Airport:

Trip Planner

Search our weather history database for the weather conditions in past years. The results will help you decide how hot, cold, wet, or windy it might be!

Date:

Astronomy

Mar. 20, 2014 Rise Set
Actual Time 6:07 AM CET 6:15 PM CET
Civil Twilight 5:40 AM CET 6:43 PM CET
Nautical Twilight 5:07 AM CET 7:15 PM CET
Astronomical Twilight 4:35 AM CET 7:47 PM CET
Moon 10:19 PM CET (3/20) 7:59 AM CET (3/20)
Length of Visible Light 13h 02m
Length of Day
12h 08m
Waning Gibbous, 86% of the Moon is Illuminated
Mar 20
Waning Gibbous
Mar 24
Last Quarter
Mar 30
New
Apr 7
First Quarter
Apr 15
Full

Hourly Weather History & Observations

Time (CET) Temp. Windchill Dew Point Humidity Pressure Visibility Wind Dir Wind Speed Gust Speed Precip Events Conditions
12:55 AM 46.4 °F 43.5 °F 44.6 °F 93% 30.18 in 2.5 mi North 5.8 mph - N/A   Partly Cloudy
1:00 AM 46 °F - 45 °F 96% 30.19 in 2 mi North 5.8 mph - -   Mist
1:55 AM 46.4 °F 43.5 °F 42.8 °F 87% 30.18 in 2.5 mi North 5.8 mph - N/A   Partly Cloudy
2:55 AM 48.2 °F - 44.6 °F 87% 30.18 in 2.5 mi North 2.3 mph - N/A   Partly Cloudy
3:55 AM 46.4 °F 44.3 °F 44.6 °F 93% 30.18 in 2.5 mi NNE 4.6 mph - N/A   Scattered Clouds
4:00 AM 47 °F - 44 °F 84% 30.19 in 2 mi NNE 4.6 mph - -   Mist
4:55 AM 50.0 °F - 46.4 °F 87% 30.18 in 2.5 mi NNE 8.1 mph - N/A   Mist
5:55 AM 50.0 °F - 46.4 °F 87% 30.18 in 5.6 mi NNE 6.9 mph - N/A   Unknown
6:55 AM 51.8 °F - 46.4 °F 82% 30.18 in 5.6 mi NNE 8.1 mph - N/A   Unknown
7:00 AM 51 °F - 47 °F 82% 30.19 in 6 mi NNE 8.1 mph - -   Mist
7:55 AM 57.2 °F - 53.6 °F 88% 30.18 in 5.6 mi NE 10.4 mph - N/A   Unknown
8:55 AM 60.8 °F - 55.4 °F 82% 30.21 in - NE 11.5 mph - N/A   Clear
9:55 AM 66.2 °F - 55.4 °F 68% 30.21 in - NE 10.4 mph - N/A   Clear
10:00 AM 67 °F - 56 °F 59% 30.23 in 6 mi NE 10.4 mph - -   Clear
10:55 AM 68.0 °F - 57.2 °F 68% 30.21 in - NE 11.5 mph - N/A   Clear
11:55 AM 69.8 °F - 57.2 °F 64% 30.21 in - ENE 10.4 mph - N/A   Clear
12:55 PM 73.4 °F - 55.4 °F 53% 30.18 in - NE 11.5 mph - N/A   Clear
1:00 PM 73 °F - 56 °F 44% 30.21 in 9 mi NE 11.5 mph - -   Clear
1:55 PM 73.4 °F - 48.2 °F 41% 30.18 in - East 9.2 mph - N/A   Clear
2:55 PM 71.6 °F - 59.0 °F 64% 30.18 in - WSW 10.4 mph - N/A   Clear
3:55 PM 68.0 °F - 59.0 °F 73% 30.18 in - WSW 10.4 mph - N/A   Clear
4:00 PM 67 °F - 60 °F 72% 30.19 in 7 mi WSW 10.4 mph - -   Scattered Clouds
4:55 PM 64.4 °F - 60.8 °F 88% 30.18 in - West 6.9 mph - N/A   Clear
5:55 PM 60.8 °F - 59.0 °F 94% 30.18 in - WSW 3.5 mph - N/A   Clear
6:55 PM 59.0 °F - 57.2 °F 94% 30.18 in 4.3 mi South 4.6 mph - N/A   Unknown
7:00 PM 59 °F - 58 °F 93% 30.20 in 4 mi South 4.6 mph - -   Mist
7:55 PM 57.2 °F - 55.4 °F 94% 30.21 in 4.3 mi ESE 3.5 mph - N/A   Unknown
8:55 PM 53.6 °F - 51.8 °F 94% 30.21 in 3.7 mi ENE 3.5 mph - N/A   Unknown
9:55 PM 50.0 °F - 48.2 °F 94% 30.21 in 3.7 mi North 5.8 mph - N/A   Unknown
10:00 PM 50 °F - 49 °F 94% 30.22 in 4 mi North 5.8 mph - -   Mist
10:55 PM 51.8 °F - 48.2 °F 88% 30.21 in 3.7 mi ENE 1.2 mph - N/A   Unknown
11:55 PM 51.8 °F - 48.2 °F 88% 30.18 in 3.7 mi South 3.5 mph - N/A   Unknown